Погода в Мушковичах

Россия / Смоленская область     55°03′34″N   32°30′44″E
темп.,
°C
ветер,
м/с
пор.,
м/с
влажн.,
%
обл.,
%
осадки,
мм/ч
давл.,
гПа
погр.,
м
7 мая, пт
пт700:00+3ююз311933 0.0 1008321
03:00+2юз411924 0.0 1009302
06:00+1ююз3892100 0.0 1010189
09:00+7ююз41079100 0.2 1010611
12:00+11юз58597 0.3 10091586
15:00+11юз596798 1.5 10091393
18:00+10юз4873100 0.9 1008717
21:00+8ю51183100 1.3 1008718
8 мая, сб
сб800:00+7вюв3896100 5.4 1005652
03:00+8ююз4996100 6.1 1003592
06:00+7зюз2697100 0.1 1003303
09:00+9з4685100 0.1 1003754
12:00+10зсз5674100 0.3 10041157
15:00+7ссз4782100 0.7 1006900
18:00+8сз4975100 0.9 10071322
21:00+4сз5117989 1.0 1011670
9 мая, вс
вс900:00+2з39895 0.0 1013234
03:00+1з411935 0.0 1015415
06:00+1сз311923 0.0 1018392
09:00+7зсз47615 0.0 10201044
12:00+10зсз46425 0.0 10221920
15:00+12зсз453721 0.0 10232214
18:00+11з23465 0.0 10241738
21:00+6ююз226832 0.0 102623
10 мая, пн
пн1000:00+4ююз347360 0.0 102761
03:00+3ююз377798 0.0 1029116
06:00+4ююз287913 0.0 1030168
09:00+10ююз466112 0.0 1030453
12:00+14ююз45515 0.0 10301254
15:00+16ююз45484 0.0 10291450
18:00+15ююз23570 0.0 10291159
21:00+9ю34830 0.0 102961
11 мая, вт
вт1100:00+7ю23834 0.0 103041
03:00+6ююв238212 0.0 103140
06:00+6ююв2277100 0.0 103143
09:00+12ююв356090 0.0 1031428
12:00+16юв35455 0.0 10301172
15:00+18юв34424 0.0 10281327
18:00+17юв35535 0.0 10271035
21:00+11юв27825 0.0 1027118